Theta_e
319 320 321 322 322 321 322 322 322 322 323 322 323 323 322 321 322 322 323 323 321 320 320 321 320 321 321 324 323 325 325 323 319 321 324 326 326 326 326 326 326 325 322
318 320 321 321 321 320 322 322 323 323 324 323 323 322 322 322 323 323 323 323 322 320 321 321 321 321 322 324 325 325 325 325 322 318 322 324 324 326 325 325 325 326 325
318 320 320 320 320 319 321 323 323 323 323 323 323 323 323 322 322 323 322 321 320 321 321 321 321 321 322 323 325 325 326 325 324 321 321 324 324 326 325 325 324 324 326
318 319 319 320 320 320 320 321 323 324 324 324 324 325 325 323 322 322 321 320 321 321 321 322 322 322 322 324 324 325 325 324 324 322 321 321 323 324 323 320 317 317 322
317 318 319 320 321 321 321 322 323 325 326 326 325 325 326 324 322 322 322 321 321 322 322 322 322 321 319 320 324 323 323 321 321 320 318 319 319 321 320 318 317 316 317
315 318 319 320 321 322 322 321 320 323 325 326 325 325 325 323 305 311 318 322 322 322 321 321 320 318 315 312 312 312 319 320 318 317 315 317 317 319 319 318 316 315 313
314 318 320 320 321 322 322 318 319 318 321 323 323 324 322 318 304 305 312 323 322 323 322 322 322 321 320 319 310 310 311 311 315 319 316 318 317 320 317 315 315 314 315
314 317 319 320 320 321 320 318 316 315 317 319 321 321 320 314 302 303 308 324 323 324 324 323 322 321 318 319 318 318 317 317 318 319 321 318 320 320 320 319 317 314 311
314 315 319 319 319 319 319 316 314 314 314 316 318 320 316 312 300 302 316 323 323 323 323 323 322 321 304 304 317 316 313 310 302 300 301 300 300 303 312 318 316 315 311
315 316 318 318 319 319 318 314 314 314 314 315 314 316 311 314 299 302 316 323 322 322 322 321 310 318 301 303 315 315 313 310 308 308 310 307 307 305 305 320 318 314 307
317 316 317 318 319 319 317 316 314 314 313 313 312 312 315 316 309 301 306 323 323 322 321 320 321 303 301 300 304 315 313 309 304 308 308 308 309 308 307 308 310 310 307
316 316 315 316 320 318 318 316 314 313 311 311 311 310 310 311 305 298 301 308 312 322 321 322 318 300 298 297 303 299 296 303 310 309 308 307 306 305 304 305 305 304 304
315 315 314 315 317 318 317 316 314 312 311 310 311 311 310 307 305 299 299 299 304 319 321 314 300 295 296 298 297 295 298 310 310 309 307 305 304 303 303 301 302 302 300
313 313 312 313 313 317 318 318 316 313 312 311 310 311 311 309 306 305 309 308 302 308 303 303 299 298 297 300 301 302 310 311 310 309 306 303 303 302 302 302 299 298 296
313 312 312 313 314 315 318 317 318 318 315 314 314 312 311 310 309 302 306 311 312 305 301 301 301 301 302 301 302 305 307 307 307 305 303 302 303 302 301 302 300 299 296
311 310 310 312 313 315 316 313 297 304 302 300 301 311 315 304 297 295 294 296 295 293 303 304 303 303 303 302 302 304 307 305 306 305 304 304 303 302 301 300 299 298 294
311 311 310 310 313 314 315 315 314 308 299 298 297 299 302 306 296 294 293 292 292 295 309 305 305 303 304 302 301 303 305 306 305 305 304 303 303 303 300 299 297 295 293
313 303 310 311 312 314 315 316 316 315 315 315 300 301 296 296 296 294 291 294 298 299 305 307 306 304 303 303 302 303 304 304 304 304 303 303 302 300 299 297 296 293 291
313 311 312 311 313 312 315 316 316 316 316 316 308 299 295 293 293 291 292 307 304 303 304 305 306 304 302 303 303 304 305 304 304 303 302 302 302 300 299 296 294 290 290
314 305 307 312 311 313 314 315 315 314 314 315 313 314 300 300 304 302 299 304 306 306 305 306 307 305 304 303 303 304 305 302 302 303 303 302 301 300 299 295 294 291 291
315 310 303 312 312 313 313 314 314 314 314 314 314 312 297 309 312 309 304 304 307 306 307 307 307 308 308 306 305 305 305 305 304 304 302 301 301 300 298 295 293 293 292
316 312 312 313 313 313 313 314 314 314 314 314 314 310 291 309 314 312 309 308 308 309 308 309 309 309 310 309 308 306 306 304 303 303 302 300 299 298 295 294 293 292 292
316 314 313 314 314 306 309 314 314 314 314 314 314 311 302 308 312 312 310 310 310 310 309 307 308 309 311 312 311 309 307 306 305 304 302 299 297 296 295 293 293 292 292
316 315 314 314 314 313 313 314 314 305 314 314 314 313 309 309 310 312 312 311 310 310 311 308 308 308 309 310 311 311 310 310 308 305 302 299 297 295 295 295 294 293 291
316 315 315 315 314 313 313 314 314 314 313 314 314 313 313 311 310 311 312 311 310 310 310 310 310 309 309 310 309 309 299 292 303 298 302 300 298 296 296 295 294 292 291
317 316 315 315 315 315 315 313 314 314 313 313 314 314 314 313 312 311 311 311 310 310 310 310 311 311 310 309 307 295 291 291 295 295 301 299 298 297 296 294 292 291 290
Wind_Speed
5 3 3 2 2 3 3 2 3 3 4 3 4 5 6 5 6 7 7 7 8 7 5 6 6 5 4 5 3 3 4 5 6 4 5 7 5 13 10 8 7 6 4
5 4 3 4 3 3 3 3 3 3 3 4 5 7 7 6 7 8 7 5 7 7 7 8 8 5 6 6 4 5 5 4 5 10 8 7 7 11 9 8 5 4 3
5 5 4 4 4 2 4 3 3 4 4 4 6 7 7 7 8 7 6 7 6 5 7 7 6 9 7 5 6 7 6 6 4 7 6 5 7 8 7 5 5 4 2
5 5 5 5 4 3 4 3 4 4 4 5 6 7 8 8 8 8 8 9 8 7 6 6 6 8 9 7 7 8 7 7 7 8 8 7 5 5 5 3 3 2 2
6 6 5 5 4 4 4 4 4 4 4 5 8 6 7 8 7 8 8 8 8 8 7 7 6 8 9 6 5 5 8 5 7 7 7 7 6 6 5 2 3 2 3
6 6 5 5 5 4 4 3 4 4 5 6 7 9 6 5 11 11 11 8 8 8 8 8 9 12 12 14 13 11 9 7 8 4 3 6 5 3 3 3 4 3 3
7 5 6 5 5 4 4 5 5 4 4 6 5 5 6 6 12 12 11 8 7 8 9 8 8 7 8 7 9 11 9 10 5 5 7 6 6 7 6 4 3 3 3
7 7 6 5 6 5 4 5 5 3 4 4 6 5 5 4 9 12 11 10 8 8 8 8 7 6 5 6 7 6 4 4 3 3 4 5 4 7 6 4 5 7 5
9 8 7 7 6 7 6 5 3 5 3 3 3 6 7 4 7 10 10 9 9 8 7 7 5 5 5 10 6 8 7 5 8 11 11 9 9 11 8 8 6 6 2
10 10 8 7 8 8 8 6 3 3 4 5 5 3 7 6 6 9 9 7 9 6 5 5 6 5 6 6 5 5 7 4 7 6 6 8 8 8 5 3 7 6 4
10 9 8 7 8 7 7 4 5 5 5 5 6 4 5 5 6 8 11 7 8 6 6 4 3 5 5 5 5 3 3 7 8 8 6 6 6 7 6 6 4 4 4
10 10 9 8 6 6 8 5 5 7 6 5 5 4 3 3 5 5 9 7 9 8 7 5 4 5 4 6 5 8 11 9 6 6 6 5 6 7 7 8 9 10 8
11 10 9 9 7 8 7 7 5 5 5 5 4 4 3 2 3 6 8 10 9 5 4 6 9 7 6 4 4 10 10 6 6 6 7 4 4 7 9 9 10 11 13
13 10 8 10 7 7 5 6 6 6 4 5 5 4 3 2 2 2 3 5 8 6 7 5 5 5 4 5 5 5 4 6 6 7 6 6 7 7 7 6 8 7 8
13 10 10 8 10 8 7 6 7 6 8 7 5 6 6 4 5 7 7 5 4 6 8 4 2 2 3 3 3 4 4 5 6 6 8 8 8 7 7 6 7 4 6
12 9 9 8 8 7 7 4 7 3 11 9 11 9 5 4 11 14 11 9 13 15 3 3 4 4 5 6 5 5 4 5 5 6 7 8 8 8 8 5 4 6 8
15 13 9 9 9 9 8 7 7 2 5 9 9 10 12 12 12 14 12 10 13 8 3 4 5 6 6 6 6 5 5 5 5 7 8 8 7 6 8 7 7 8 7
13 16 12 10 10 9 9 9 8 8 8 5 6 9 9 8 12 12 15 13 5 4 4 5 7 7 7 7 8 8 7 6 7 7 7 7 7 8 8 8 8 7 7
13 11 11 10 9 10 9 8 8 8 8 5 3 2 3 6 6 10 17 6 8 8 8 7 6 7 7 8 7 7 7 7 7 8 8 9 9 9 9 8 7 9 9
13 16 13 10 9 9 8 9 8 8 8 8 7 9 6 6 6 6 8 8 7 7 8 9 7 7 7 7 7 6 6 6 7 8 9 9 9 9 10 9 8 9 3
11 10 12 10 10 11 10 10 9 9 9 9 10 9 12 10 10 8 8 9 9 8 8 8 8 8 7 8 8 8 9 8 9 9 8 8 9 9 8 8 7 3 8
11 12 12 11 10 10 10 10 10 10 10 10 9 7 13 10 9 9 10 10 10 10 9 9 8 9 10 10 10 10 10 10 10 11 12 10 11 10 10 9 9 10 7
11 12 12 10 10 10 8 9 10 10 10 10 9 8 9 10 10 10 10 10 10 10 9 9 9 9 8 9 10 12 12 13 14 12 12 13 13 12 11 11 10 8 8
12 13 13 11 10 10 11 11 10 10 10 10 10 9 10 10 11 12 11 9 9 9 9 10 10 12 10 10 10 10 10 9 9 12 15 13 12 14 12 11 11 11 8
11 11 12 12 11 12 11 11 11 10 11 10 10 10 9 9 9 10 9 8 8 9 10 11 10 13 16 18 14 13 9 13 15 16 14 17 20 22 16 12 11 8 8
10 11 10 9 9 10 10 10 11 10 10 10 10 10 10 10 10 8 8 9 8 9 10 8 10 13 11 11 12 13 15 14 18 18 16 16 17 14 13 13 14 8 10
Wind_Direction
174 163 141 132 98 105 97 68 50 43 54 76 105 114 117 120 117 114 123 121 119 115 106 120 118 132 126 131 121 111 106 95 112 106 115 131 111 124 115 111 122 111 126
176 148 146 117 101 101 118 85 52 68 87 113 121 121 124 123 118 126 127 121 132 133 116 121 129 116 121 129 124 113 108 109 118 134 134 138 126 118 122 124 123 123 146
172 148 148 123 115 117 105 95 87 57 81 92 101 110 115 120 125 127 123 118 118 111 117 126 127 124 128 125 120 124 119 118 120 131 124 117 131 129 128 105 118 126 147
169 154 158 146 140 145 113 107 107 91 93 89 101 115 119 117 123 127 122 126 118 109 103 109 123 139 141 128 120 128 128 124 126 115 125 135 122 124 99 112 111 84 136
167 158 174 148 141 149 115 106 94 89 82 97 111 104 116 120 126 119 114 109 111 114 115 114 121 118 103 101 114 113 117 105 117 112 100 121 129 123 141 131 103 125 72
172 171 163 149 141 158 133 114 106 86 86 93 110 118 111 107 125 121 128 117 112 116 113 111 112 104 99 93 88 73 99 117 107 96 104 126 129 125 127 147 134 143 128
168 167 165 158 144 151 135 110 100 89 101 100 99 115 117 123 125 118 109 116 114 113 112 119 108 102 98 97 86 84 89 95 105 130 140 149 153 165 141 143 139 107 100
169 169 163 163 145 146 128 113 109 97 98 94 101 97 103 106 128 122 119 118 111 111 107 108 114 103 85 100 96 86 93 102 116 123 132 146 126 151 141 141 126 106 94
180 173 174 162 152 149 148 144 116 115 106 98 100 104 105 115 141 128 114 113 118 117 120 120 121 105 86 75 94 114 111 84 49 72 81 93 116 134 139 122 124 128 94
182 182 171 164 159 161 155 155 126 120 115 114 101 96 110 129 129 141 131 127 122 133 118 115 119 115 98 77 105 136 112 116 119 101 82 66 72 79 77 76 151 141 135
174 169 160 165 165 159 150 146 134 127 113 106 105 95 120 138 146 139 149 152 149 151 151 155 150 129 131 145 118 124 105 131 112 105 95 87 81 79 73 66 68 128 124
158 166 167 160 165 151 153 137 134 135 127 125 117 104 99 125 148 188 161 139 149 153 165 163 142 157 179 180 163 124 127 117 124 117 108 101 105 94 81 75 77 82 68
159 167 169 159 158 157 152 150 138 141 142 146 146 135 137 123 102 149 172 143 141 140 154 158 145 151 146 148 172 154 149 135 130 125 134 130 119 120 114 103 97 88 70
168 169 161 165 155 157 154 163 157 160 154 154 157 163 154 150 145 137 137 128 112 98 107 98 101 105 80 111 114 152 147 145 150 150 143 127 131 138 139 129 106 99 83
167 165 168 170 170 166 171 173 178 187 177 170 184 170 163 182 204 177 160 160 154 128 113 105 118 130 148 144 130 153 150 154 156 143 147 150 154 151 141 133 128 93 109
162 165 172 167 174 172 169 147 55 170 189 196 167 165 203 201 161 176 181 158 139 147 110 153 178 187 187 183 179 166 172 178 160 150 155 163 165 164 147 135 105 118 128
169 167 165 167 173 172 177 180 186 77 163 191 195 192 178 181 177 178 172 143 159 157 168 183 190 191 201 196 187 185 186 190 162 171 171 171 161 148 145 149 135 136 126
170 164 166 173 177 178 182 186 189 189 194 188 213 199 215 207 186 177 135 121 139 233 203 197 200 190 197 197 195 196 188 174 178 176 171 165 163 158 156 147 147 138 135
165 170 173 173 177 178 178 182 190 190 196 186 139 172 197 167 159 140 165 177 187 200 208 212 199 192 198 202 205 200 186 182 178 170 168 169 168 163 160 152 142 141 136
177 168 166 169 166 171 176 181 183 189 190 193 195 205 147 134 184 186 194 204 201 206 208 216 211 202 197 194 188 179 173 163 172 180 177 171 168 167 161 153 156 150 162
172 165 166 166 174 179 182 190 192 193 197 199 206 191 177 187 201 199 197 203 209 210 210 210 203 200 195 192 186 187 188 186 183 179 172 174 163 164 150 132 118 128 142
171 166 173 177 175 179 187 186 190 195 202 205 209 192 176 202 205 203 200 204 208 211 208 208 207 204 200 193 190 188 187 179 174 177 173 174 160 145 137 133 132 147 132
166 167 177 181 183 176 173 186 192 197 201 205 206 191 181 202 212 212 209 207 205 207 203 201 209 213 205 201 190 185 186 192 192 183 172 162 152 142 140 143 146 153 142
167 171 176 181 180 182 185 188 195 201 203 205 204 201 194 202 208 216 213 206 203 206 203 204 209 209 201 199 196 198 199 190 177 169 152 145 141 138 145 154 154 159 151
170 171 176 180 182 188 188 194 192 196 201 205 208 208 207 204 208 213 213 205 204 201 205 205 209 213 205 200 196 190 159 142 151 151 152 151 150 146 149 148 157 159 138
188 173 179 175 181 185 186 194 198 191 201 208 211 209 207 208 208 204 205 204 207 209 210 207 214 211 198 190 175 145 146 144 145 150 148 146 146 146 144 148 150 153 149